Flag for United Kingdom Weather past 2 weeks in Newport, Wales, United Kingdom

Now
52 °F

Drizzle. Partly sunny.


Feels Like: 48 °F
Forecast: 49 / 56 °F
Wind: 12 mph from South

Location: Bristol / Lulsgate

Current Time: May 30, 2015 at 10:18:46 PM

Latest Report: May 30, 2015 at 9:50 PM


Visibility: N/A

Pressure: 29.86 "Hg

Humidity: 88%

Dew point: 48 °F

Location of NewportLocation

Historic Weather in Newport — Graph

°F

Newport temperature yesterday

Maximum temperature yesterday: 55 °F (at 1:50 PM)
Minimum temperature yesterday: 46 °F (at 12:20 AM)
Average temperature yesterday: 49 °F

Past Weeks' High & Low Weather Summary

 TemperatureHumidityPressure
High66 °F (May 23, 2:50 PM)100% (May 16, 2:50 AM)30.39 "Hg (May 16, 2:50 AM)
Low39 °F (May 20, 2:50 AM)44% (May 20, 5:50 PM)29.59 "Hg (May 18, 10:20 AM)
Average52 °F79%30.09 "Hg
* Reported May 15 9:20 PM — May 30 9:20 PM, Newport, Weather by CustomWeather, © 2015

Note: Actual official high and low records may vary slightly from our data, if they occured in-between our weather recording intervals... More about our weather records

Advertising

Newport weather history for previous 24 hours

 ConditionsComfort  
Time TempWeatherWind HumidityBarometerVisibility
9:20 PM
Sat, May 30
52 °FPartly sunny.10 mph82%29.86 "HgN/A
8:50 PM54 °FScattered clouds.9 mph77%29.89 "HgN/A
8:20 PM54 °FPassing clouds.10 mph77%29.89 "HgN/A
7:50 PM54 °FPassing clouds.13 mph72%29.89 "HgN/A
7:20 PM55 °FSunny.14 mph67%29.89 "Hg10 mi
6:50 PM55 °FPassing clouds.14 mph67%29.92 "HgN/A
6:20 PM55 °FPassing clouds.12 mph67%29.92 "HgN/A
5:50 PM57 °FPassing clouds.13 mph63%29.92 "HgN/A
5:20 PM57 °FPassing clouds.7 mph63%29.95 "HgN/A
4:50 PM57 °FPassing clouds.6 mph59%29.95 "HgN/A
4:20 PM57 °FPassing clouds.7 mph59%29.95 "HgN/A
3:50 PM57 °FPassing clouds.5 mph59%29.95 "HgN/A
3:20 PM57 °FPassing clouds.9 mph59%29.95 "HgN/A
2:50 PM57 °FPassing clouds.10 mph59%29.95 "HgN/A
2:20 PM55 °FPassing clouds.12 mph59%29.98 "HgN/A
1:50 PM55 °FPassing clouds.14 mph59%29.98 "HgN/A
1:20 PM55 °FPassing clouds.12 mph55%29.98 "HgN/A
12:50 PM55 °FPassing clouds.15 mph47%29.98 "HgN/A
12:20 PM54 °FPassing clouds.14 mph51%29.98 "HgN/A
11:50 AM54 °FPassing clouds.12 mph63%29.98 "HgN/A
11:20 AM54 °FScattered clouds.10 mph58%29.98 "HgN/A
10:50 AM52 °FScattered clouds.12 mph62%29.98 "HgN/A
10:20 AM52 °FScattered clouds.12 mph67%29.98 "HgN/A
9:50 AM50 °FScattered clouds.10 mph71%29.98 "HgN/A
9:20 AM50 °FScattered clouds.13 mph67%29.98 "HgN/A
8:50 AM50 °FScattered clouds.12 mph71%29.95 "HgN/A
8:20 AM48 °FPassing clouds.10 mph76%29.95 "HgN/A
7:50 AM48 °FPassing clouds.9 mph82%29.95 "HgN/A
7:20 AM48 °FPassing clouds.9 mph82%29.92 "HgN/A
6:50 AM46 °FPassing clouds.8 mph87%29.92 "HgN/A
6:20 AM46 °FPassing clouds.9 mph82%29.92 "HgN/A
5:50 AM45 °FPassing clouds.7 mph87%29.92 "HgN/A
5:20 AM45 °FPassing clouds.7 mph87%29.89 "HgN/A
4:50 AM45 °FPassing clouds.9 mph87%29.89 "HgN/A
4:20 AM46 °FPassing clouds.12 mph82%29.89 "HgN/A
3:50 AM46 °FPassing clouds.12 mph87%29.89 "HgN/A
3:20 AM46 °FPassing clouds.12 mph93%29.89 "HgN/A
2:50 AM46 °FPassing clouds.12 mph87%29.89 "HgN/A
2:20 AM46 °FPassing clouds.13 mph93%29.86 "HgN/A
1:50 AM48 °FPassing clouds.13 mph82%29.86 "HgN/A
1:20 AM48 °FPassing clouds.14 mph82%29.89 "HgN/A
12:50 AM48 °FPassing clouds.14 mph82%29.89 "HgN/A
12:20 AM48 °FPassing clouds.14 mph82%29.89 "HgN/A
11:50 PM
Fri, May 29
46 °FPassing clouds.13 mph87%29.86 "HgN/A
11:20 PM46 °FPassing clouds.12 mph87%29.89 "HgN/A
10:50 PM46 °FPassing clouds.9 mph82%29.89 "HgN/A
10:20 PM46 °FSprinkles. Passing clouds.13 mph87%29.89 "HgN/A
Weather by CustomWeather, © 2015

See weather overviewHow to use our weather pages